Regional Weather Roundup
Issued by NWS Midland/Odessa, TX

Skip options and go directly to product.
Home | Oldest Version | Next Version | Current Version | All | Text Only | Save Text | Print | Product List | Glossary On

Skip product version selection by date and time.   
960
ASUS44 KMAF 232301
RWRMAF
MIDLAND AREA WEATHER ROUNDUP
NATIONAL WEATHER SERVICE MIDLAND TX
500 PM CST MON JAN 23 2017

...IN SOUTHWEST TEXAS AND SOUTHEAST NEW MEXICO...

CITY           SKY/WX    TMP DP  RH WIND       PRES   REMARKS
ALPINE         SUNNY     73  28  19 S12       29.93F
ANDREWS        FAIR      72  24  16 W17G23    29.80F
ARTESIA        SUNNY     70  30  23 SW29G36   29.76F
BIG SPRING     SUNNY     72  29  20 SW16      29.82F
CARLSBAD       SUNNY     72  20  14 W21G32    29.77F
DRYDEN           N/A     78  32  18 E8        29.80F
FORT STOCKTON  SUNNY     79  28  15 SW16G23   29.80F
GUAD PASS      SUNNY     63  24  22 W29       29.89F
HOBBS          SUNNY     68  19  15 SW17G24   29.80F
MARFA          SUNNY     72  28  19 S21       29.90F
MIDLAND AIRPK  SUNNY     75  24  14 SW12      29.81F
MIDLAND INTL   SUNNY     76  23  14 W13       29.80F
ODESSA         SUNNY     75  24  15 W17G24    29.81F
PECOS          SUNNY     78  29  16 W17G23    29.78S
PRESIDIO       FAIR      79  29  16 SE3       29.79F
SEMINOLE       SUNNY     69  24  18 SW10      29.80F
SNYDER         SUNNY     73  29  19 W15       29.78F
WINK           SUNNY     76  24  14 W20G28    29.77F
$$
...OTHER STATIONS IN TEXAS...

CITY           SKY/WX    TMP DP  RH WIND       PRES   REMARKS
ABILENE        SUNNY     75  34  22 W12       29.78F
AMARILLO       SUNNY     67  32  27 SW18      29.71S
AUSTIN         SUNNY     75  34  22 S12       29.84F
BROWNSVILLE    SUNNY     75  37  25 SE14      29.92F
CORPUS CHRISTI SUNNY     74  38  27 SE13      29.88F
DALLAS FTW     CLEAR     66  35  31 S14       29.80F
DEL RIO        SUNNY     80  31  16 SE15      29.78F
EL PASO        MOSUNNY   68  23  18 SW17      29.83F
HOUSTON INT    CLEAR     70  35  27 W5        29.89F
LUBBOCK        MOSUNNY   72  28  19 SW15      29.74F
SAN ANGELO     SUNNY     76  34  21 SW14      29.80F
SAN ANTONIO    SUNNY     75  29  18 S12       29.86F
WACO           CLEAR     67  39  35 SE9       29.84F
WICHITA FALLS  NOT AVBL
$$
...OTHER LOCATIONS IN NEW MEXICO...

CITY           SKY/WX    TMP DP  RH WIND       PRES   REMARKS
ALAMAGORDO     SUNNY     63  32  31 SW15G22   29.83F
ALBUQUERQUE    MOSUNNY   60  19  20 SW30G39   29.70F
CANNON AFB     SUNNY     67  27  21 SW24G31   29.72F
CLOVIS         SUNNY     66  30  26 SW17G24   29.72F
HOLLOMAN AFB   NOT AVBL
ROSWELL        SUNNY     71  29  21 SW23G37   29.71F
RUIDOSO        SUNNY     48  25  40 SW33G44   29.81F WCI  39
SANTA FE       CLOUDY    52  27  38 SW20G31   29.69F
TRUTH OR CONSE SUNNY     60  31  33 S21G32    29.77F
TUCUMCARI      SUNNY     67  27  22 SW28G39   29.67F
$$

  • National Weather Service
  • Southern Region Headquarters
  • 819 Taylor Street, Room 10A06
  • Fort Worth, TX 76102
  • Page Author: NWS Fort Worth
  • Web Master: SR-SRH.Webmaster@noaa.gov
  •  
  • Page last modified: 30-Sep-2016 6:36 PM UTC
USA.gov is the U.S. government's official web portal to all federal, state and local government web resources and services.